星链-11572 (STARLINK-11572)

导读

STARLINK-11572是美国SpaceX公司星链(Starlink)星座的卫星,于2025年2月11日发射。星链项目旨在构建全球低轨卫星互联网,为全球提供高速低延迟宽带服务。作为星链规模扩张中的一员,它延续了成熟的卫星设计,配备相控阵天线与推进系统,助力进一步完善全球网络覆盖,推动星链向更广泛民用与商用场景延伸。

Basic Information
目录编号:
62990
目录名称:
STARLINK-11572
国际标识:
2025-031K
轨道中心:
EARTH
卫星名称:
星链-11572
卫星全名:
星链-11572 (STARLINK-11572)
卫星状态:
在轨 (已飞行571 天)
发射日期:
2025-02-11 UTC
国别 :
美国 (US)
星等 :
--
Orbit Information
数据来源 国际轨道数据
星历时间: 2026-09-05T01:38:15+0800
14小时前
查看轨道信息
半长轴: 6734.547km
偏心率: 0.0002451
轨道倾角: 43.001°
近地点辐角 269.937°
升交点赤经 2.048°
平近点角 90.121°
近地点: 354.759km
远地点: 358.061km
周期: 91.669分钟
每日圈数: 15.708698
Detailed Information
固有亮度:
5
最大亮度:
2.5
卫星平台:
Starlink V1.0
覆盖范围:
全球
运营商:
太空探索技术公司
运营商所在国:
美国
制造商(研发单位):
太空探索技术公司
制造商所在国:
美国
使用方式:
暂无
Satellite Introduction
Starlink 计划是 SpaceX 推出的全球卫星互联网项目,通过发射低轨道卫星,为全球尤其是偏远地区提供高速、低延迟的互联网服务。自 2019 年起,Starlink 已部署数千颗卫星,旨在缩小全球数字鸿沟,推动互联网普及。该项目还为军事、航空等行业提供通信支持,带来广泛经济效益。
2D Orbit Map
3D Orbit Map
Orbit Altitude Analysis Chart
Orbit Inclination Analysis Chart
Orbit Comprehensive Analysis Chart
View Comprehensive Chart
Conjunction Data List
Event ID Objects TCA Miss Dist (km) Collision Risk Probability Collision Risk Index (CRI) Action
CDM_260907-170506-299006-437621
2026-09-07T
17:05:59+0000
1.960 km
极远距离
1.880311E-6 低风险 0.4
CDM_260905-203906-299006-318621
2026-09-05T
20:39:16+0000
2.400 km
极远距离
8.559844E-7 极低风险 0.34